Regional Weather Roundup
Issued by NWS Northern Indiana

Home | Current Version | Previous Version | Text Only | Print | Product List | Glossary Off
Versions: 1 2 3 4 5 6 7 8 9 10 11 12 13 14 15 16 17 18 19 20 21 22 23 24 25 26 27 28 29 30 31 32 33 34 35 36 37 38 39 40 41 42 43 44 45 46 47 48 49 50

000
ASUS43 KIWX 230600
RWRIWX

KIWX WEATHER ROUNDUP
NATIONAL WEATHER SERVICE NORTHERN INDIANA
200 AM EDT SAT MAY 23 2015

NOTE: "FAIR" INDICATES FEW OR NO CLOUDS BELOW 12,000 FEET WITH NO
SIGNIFICANT WEATHER AND/OR OBSTRUCTIONS TO VISIBILITY.

* THESE STATIONS ARE NOT UNDER NWS QUALITY CONTROL. THEY ALSO MAY NOT
  REPORT WEATHER SUCH AS PRECIPITATION OR FOG.

INZ001>027-230700-
NORTHERN INDIANA

CITY           SKY/WX    TMP DP  RH WIND       PRES   REMARKS
SOUTH BEND     CLOUDY    49  37  63 CALM      30.31S
6HR MIN TEMP:  49; 6HR MAX TEMP:  62;

GOSHEN         MOCLDY    46  36  68 E3        30.30S
6HR MIN TEMP:  45; 6HR MAX TEMP:  63;

ANGOLA*        CLEAR     45  37  76 CALM      30.31F
FORT WAYNE     MOCLDY    53  35  50 NE3       30.31F
6HR MIN TEMP:  52; 6HR MAX TEMP:  67;

PERU/GRISSOM   MOCLDY    54  36  51 E5        30.28F
6HR MIN TEMP:  53; 6HR MAX TEMP:  69;


$$
INZ028>050-230700-
CENTRAL INDIANA

CITY           SKY/WX    TMP DP  RH WIND       PRES   REMARKS
LAFAYETTE      PTCLDY    51  39  63 E6        30.29R
6HR MIN TEMP:  51; 6HR MAX TEMP:  69;

KOKOMO*        PTCLDY    54  37  54 E6        30.30S
6HR MIN TEMP:  54; 6HR MAX TEMP:  70;

MUNCIE*        MOCLDY    52  41  66 E6        30.30F
6HR MIN TEMP:  51; 6HR MAX TEMP:  70;

INDIANAPOLIS   MOCLDY    59  44  57 NE9       30.27S
6HR MIN TEMP:  59; 6HR MAX TEMP:  72;


$$
MIZ043>046-050>051-056>058-064>065-071>073-077>080-230700-
SOUTHWEST LOWER MICHIGAN

CITY           SKY/WX    TMP DP  RH WIND       PRES   REMARKS
BATTLE CREEK   MOCLDY    51  32  48 E6        30.31F
6HR MIN TEMP:  46; 6HR MAX TEMP:  62;

BENTON HARBOR  CLOUDY    47  35  63 SE5       30.30R
6HR MIN TEMP:  42; 6HR MAX TEMP:  56;

COLDWATER*     MOCLDY    43  37  78 CALM      30.31S
6HR MIN TEMP:  43; 6HR MAX TEMP:  62;

HILLSDALE*     MOCLDY    48  35  60 NE3       30.31S
6HR MIN TEMP:  48; 6HR MAX TEMP:  65;

HOLLAND        MOCLDY    44  37  76 E5        30.30S
6HR MIN TEMP:  43; 6HR MAX TEMP:  60;

GRAND RAPIDS   PTCLDY    43  36  76 SE3       30.30F
6HR MIN TEMP:  43; 6HR MAX TEMP:  62;

KALAMAZOO      MOCLDY    45  34  65 CALM      30.31S
6HR MIN TEMP:  44; 6HR MAX TEMP:  61;

STURGIS*       MOCLDY    46  34  61 NE6       30.30F
THREE RIVERS*  FAIR      46  38  75 CALM      30.31S
6HR MIN TEMP:  44; 6HR MAX TEMP:  62;


$$
OHZ001>008-015>018-024>025-230700-
NORTHWEST OHIO

CITY           SKY/WX    TMP DP  RH WIND       PRES   REMARKS
DEFIANCE       MOCLDY    52  37  56 CALM      30.31F
6HR MIN TEMP:  49; 6HR MAX TEMP:  68;

FINDLAY        PTCLDY    54  35  48 CALM      30.30S
6HR MIN TEMP:  51; 6HR MAX TEMP:  67;

TOLEDO EXPRESS PTCLDY    46  39  76 CALM      30.31S
6HR MIN TEMP:  44; 6HR MAX TEMP:  66;

TOLEDO METCALF MOCLDY    50  37  61 NE3       30.33R
6HR MIN TEMP:  48; 6HR MAX TEMP:  64;

LIMA           PTCLDY    52  35  52 CALM      30.30S
6HR MIN TEMP:  51; 6HR MAX TEMP:  66;


$$
AND FOR LAKE MICHIGAN COASTAL AND OPEN LAKE BUOY OBSERVATIONS

STATION/POSITION TEMP    WIND        PRES    VSBY  WAVE
                 AIR SEA DIR/SP/G                  HT/PER
                 (F)     (DEG/KT/KT) (MB)    (MI)  (FT/S)
CALUMET HARBOR    53      60/  4/  5   N/A
MICHIGAN CITY     54     100/  2/  4   N/A
BURNS HARBOR      58     120/ 11/ 15 1026.1S
SAINT JOSEPH      53      CALM  /  5 1025.7F
SOUTH LAKE BUOY   44 38  130/  6/  6 1026.2F         0
4 MI NW BRIDGMAN  55 53  170/  4/  6   N/A           1
MICHIGAN CITY     53 52  140/  4/  4   N/A           1/ 3

$$
&&



USA.gov is the U.S. government's official web portal to all federal, state and local government web resources and services.